UME 1 (ISS 1)

Satellite information

Favourite Embed

Satellite Type and Status

PAYLOADIN ORBIT

Key statistics

Satellite UME 1 (ISS 1) at a glance.

Uptime

18130

Days in orbit

Revolutions

≈ 13.7

Per day

Orbit

LEO

Low Earth Orbit

Inclination

69.7

Latest

Satellite identification and parameters

Extended collection of information and parameters for UME 1 (ISS 1).

Object identification

Identified? True

Debris? False

Object name: UME 1 (ISS 1)

International designator: 1976-019A

Object number (NORAD): 8709

Object ID (CCSDS): 8709

Country: JAPAN (JPN)

Current information (Y/N): Y

RCS size: LARGE

Orbital parameters

Period: 104.978 minutes

Inclination: 69.6724 deg

SMA: 7371.548 km

Apoapsis: 1002.949 km

Periapsis: 983.878 km

RAAN: 278.9181 deg

Eccentricy: 0.00129353

Argument of periapsis: 231.6145 deg

Mean anomaly: 162.998 deg

Mean motion: 13.71717499 rev/day

Mean motion (dot): 0.00000042 rev/day2

B* drag term: 0.00010422858 1/REarth

Two-line elements (TLE)

Creation date: Oct. 19, 2025, 2:20 a.m.

Reference frame: TEME

Reference center: EARTH

Epoch: Oct. 18, 2025, 11:05 p.m. UTC

TLE line 0: 0 UME 1 (ISS 1)

TLE line 1: 1 08709U 76019A 25291.96202006 .00000042 00000-0 10423-3 0 9990

TLE line 2: 2 08709 69.6724 278.9181 0012935 231.6145 162.9980 13.71717499484019

Live tracking on map

Real-time ground track for satellite UME 1 (ISS 1).

In-orbit conjunctions

A list of the most updated potential collisions computed for object UME 1 (ISS 1).

Target Orbit TCA Probability of collision Miss distance Type
SL-16 R/B SSO 2025-03-31 01:27:03 0.009523358 81.0 (m) ROCKET BODY
SL-8 R/B LEO 2024-10-15 20:41:34 0.03154081 44.0 (m) ROCKET BODY

Associated space launch

Japanese ionospheric research satellite

UME 1 (ISS 1) was lifted into orbit during the mission ‘N-I | Ume 1’, on board a N-I space rocket.

The launch took place on Feb. 29, 1976, 3:30 a.m. from Osaki Launch Complex.

For more information about the launch, click the button.

Launch to space N-I | Ume 1
N-I | Ume 1

Agency: N/A

Status: Launch Successful

Launch date: Feb. 29, 1976, 3:30 a.m. UTC

Rocket: N-I

Launch pad: Osaki Launch Complex

Location: Tanegashima Space Center, Japan

...

Latest news about this satellite

There are no fresh news available about this satellite. Check back as we update our databases every day.


Newsletter sign-up

Weekly statistics, charts and insights to help you stay on top of the space industry.